,,Stat5,,Stat1,,Stat2,,Stat3,,Stat4,,Wind1,,Wind1,
time,status,PA1M_AVG,status,PR1M_SUM,status,RH1M_AVG,status,SR1M_AVG,status,TA1M_AVG,status,W1dAve1m,status,W1sAve1m,
2003-04-16, 00:00:01,VALID,919.869,VALID,0,VALID,99.8553,VALID,0.0339617,VALID,19.501,VALID,75,VALID,1.30744,
2003-04-16, 00:01:01,VALID,919.852,VALID,0,VALID,99.8566,VALID,0,VALID,19.5102,VALID,84,VALID,1.13705,
2003-04-16, 00:02:01,VALID,919.844,VALID,0,VALID,99.8375,VALID,0.0339617,VALID,19.5042,VALID,74,VALID,1.38446,
2003-04-16, 00:03:00,VALID,919.839,VALID,0.2,VALID,99.8349,VALID,0.0169808,VALID,19.4945,VALID,84,VALID,0.997533,
2003-04-16, 00:04:00,VALID,919.83,VALID,0,VALID,99.826,VALID,-0.0339617,VALID,19.4781,VALID,91,VALID,1.66286,
2003-04-16, 00:05:00,VALID,919.816,VALID,0,VALID,99.8082,VALID,-0.0169808,VALID,19.4786,VALID,67,VALID,1.16057,
2003-04-16, 00:06:00,VALID,919.81,VALID,0,VALID,99.8133,VALID,-0.0339617,VALID,19.4783,VALID,119,VALID,0.624794,
2003-04-16, 00:07:00,VALID,919.804,VALID,0,VALID,99.7981,VALID,-0.0509425,VALID,19.4818,VALID,99,VALID,0.645232,
2003-04-16, 00:08:00,VALID,919.816,VALID,0,VALID,99.8044,VALID,0,VALID,19.4617,VALID,90,VALID,0.876803,
2003-04-16, 00:09:00,VALID,919.809,VALID,0,VALID,99.8006,VALID,0,VALID,19.449,VALID,58,VALID,0.849559,
2003-04-16, 00:10:00,VALID,919.826,VALID,0,VALID,99.8095,VALID,0.0169808,VALID,19.4589,VALID,71,VALID,0.243336,
2003-04-16, 00:11:00,VALID,919.818,VALID,0.2,VALID,99.8146,VALID,0.0679233,VALID,19.455,VALID,171,VALID,0.140008,
2003-04-16, 00:12:00,VALID,919.81,VALID,0,VALID,99.8222,VALID,-0.0169808,VALID,19.4776,VALID,157,VALID,0.181985,
2003-04-16, 00:13:00,VALID,919.816,VALID,0,VALID,99.8197,VALID,0.0169808,VALID,19.4851,VALID,105,VALID,0.133705,
2003-04-16, 00:14:00,VALID,919.808,VALID,0,VALID,99.826,VALID,0.0339617,VALID,19.5007,VALID,146,VALID,0.0699219,
2003-04-16, 00:15:00,VALID,919.803,VALID,0,VALID,99.8324,VALID,0.0339617,VALID,19.5099,VALID,146,VALID,0.0607143,
2003-04-16, 00:16:00,VALID,919.803,VALID,0.2,VALID,99.8349,VALID,0.0679233,VALID,19.5065,VALID,161,VALID,0.368796,
2003-04-16, 00:17:00,VALID,919.791,VALID,0,VALID,99.8171,VALID,0.0169808,VALID,19.4908,VALID,201,VALID,0.299959,
2003-04-16, 00:18:00,VALID,919.793,VALID,0,VALID,99.8171,VALID,0.0169808,VALID,19.4905,VALID,214,VALID,0.294866,
2003-04-16, 00:19:00,VALID,919.788,VALID,0,VALID,99.8197,VALID,0.0339617,VALID,19.4838,VALID,174,VALID,0.533929,
2003-04-16, 00:20:00,VALID,919.781,VALID,0.2,VALID,99.826,VALID,0.0509425,VALID,19.4749,VALID,177,VALID,0.889824,
2003-04-16, 00:21:00,VALID,919.774,VALID,0,VALID,99.821,VALID,0.0169808,VALID,19.4582,VALID,173,VALID,0.991039,
2003-04-16, 00:22:00,VALID,919.773,VALID,0,VALID,99.821,VALID,0.0679233,VALID,19.4589,VALID,171,VALID,0.928571,
2003-04-16, 00:23:00,VALID,919.755,VALID,0,VALID,99.8235,VALID,0.0339617,VALID,19.4657,VALID,170,VALID,0.664844,
2003-04-16, 00:24:00,VALID,919.75,VALID,0.2,VALID,99.821,VALID,0,VALID,19.4497,VALID,170,VALID,0.828348,
2003-04-16, 00:25:00,VALID,919.733,VALID,0,VALID,99.8349,VALID,-0.0169808,VALID,19.4241,VALID,167,VALID,0.338695,
2003-04-16, 00:26:00,VALID,919.726,VALID,0,VALID,99.8375,VALID,-0.0679233,VALID,19.4303,VALID,174,VALID,0.710938,
2003-04-16, 00:27:00,VALID,919.711,VALID,0,VALID,99.8426,VALID,-0.0509425,VALID,19.4209,VALID,161,VALID,0.530804,
2003-04-16, 00:28:00,VALID,919.703,VALID,0,VALID,99.854,VALID,0,VALID,19.405,VALID,155,VALID,0.824958,
2003-04-16, 00:29:00,VALID,919.701,VALID,0,VALID,99.8591,VALID,-0.0339617,VALID,19.4047,VALID,137,VALID,0.676683,
2003-04-16, 00:30:00,VALID,919.681,VALID,0,VALID,99.8693,VALID,-0.0679233,VALID,19.4149,VALID,141,VALID,0.675092,
2003-04-16, 00:31:00,VALID,919.666,VALID,0,VALID,99.8616,VALID,0,VALID,19.4179,VALID,135,VALID,0.912723,
2003-04-16, 00:32:00,VALID,919.664,VALID,0,VALID,99.8604,VALID,-0.0339617,VALID,19.4089,VALID,129,VALID,1.32266,
2003-04-16, 00:33:00,VALID,919.642,VALID,0,VALID,99.8566,VALID,0,VALID,19.4119,VALID,129,VALID,1.03839,
2003-04-16, 00:34:00,VALID,919.636,VALID,0.2,VALID,99.8706,VALID,0.0169808,VALID,19.3958,VALID,123,VALID,0.980699,
2003-04-16, 00:35:00,VALID,919.631,VALID,0,VALID,99.8744,VALID,0,VALID,19.3923,VALID,104,VALID,0.468544,
2003-04-16, 00:36:00,VALID,919.621,VALID,0,VALID,99.8756,VALID,0.0169808,VALID,19.4052,VALID,117,VALID,1.11987,
2003-04-16, 00:37:00,VALID,919.604,VALID,0,VALID,99.8655,VALID,0.0679233,VALID,19.3853,VALID,80,VALID,0.825223,
2003-04-16, 00:38:00,VALID,919.594,VALID,0,VALID,99.8807,VALID,0.0509425,VALID,19.4147,VALID,101,VALID,0.653846,
2003-04-16, 00:39:00,VALID,919.581,VALID,0,VALID,99.882,VALID,0.0169808,VALID,19.4084,VALID,107,VALID,0.983915,
2003-04-16, 00:40:00,VALID,919.566,VALID,0,VALID,99.8807,VALID,0.101885,VALID,19.4114,VALID,99,VALID,0.722991,
2003-04-16, 00:41:00,VALID,919.547,VALID,0.2,VALID,99.8769,VALID,0.0169808,VALID,19.4179,VALID,89,VALID,0.601953,
2003-04-16, 00:42:00,VALID,919.524,VALID,0,VALID,99.8871,VALID,0.0169808,VALID,19.4216,VALID,67,VALID,0.265625,
2003-04-16, 00:43:00,VALID,919.502,VALID,0,VALID,99.8845,VALID,0.0509425,VALID,19.4117,VALID,83,VALID,0.684972,
2003-04-16, 00:44:00,VALID,919.475,VALID,0,VALID,99.8896,VALID,0,VALID,19.402,VALID,118,VALID,0.977796,
2003-04-16, 00:45:00,VALID,919.44,VALID,0,VALID,99.8884,VALID,-0.0169808,VALID,19.4017,VALID,98,VALID,0.516295,
2003-04-16, 00:46:00,VALID,919.422,VALID,0.2,VALID,99.8973,VALID,0.0169808,VALID,19.403,VALID,85,VALID,1.04643,
2003-04-16, 00:47:00,VALID,919.388,VALID,0,VALID,99.8934,VALID,0.0339617,VALID,19.4087,VALID,94,VALID,0.565905,
2003-04-16, 00:48:00,VALID,919.371,VALID,0,VALID,99.8795,VALID,-0.0339617,VALID,19.4119,VALID,90,VALID,0.738971,
2003-04-16, 00:49:00,VALID,919.333,VALID,0,VALID,99.8884,VALID,0.0339617,VALID,19.3925,VALID,88,VALID,0.552232,
2003-04-16, 00:50:00,VALID,919.3,VALID,0,VALID,99.8922,VALID,0,VALID,19.3987,VALID,88,VALID,0.403125,
2003-04-16, 00:51:00,VALID,919.267,VALID,0.2,VALID,99.8909,VALID,-0.0169808,VALID,19.3856,VALID,88,VALID,0.439509,
2003-04-16, 00:52:00,VALID,919.248,VALID,0,VALID,99.8884,VALID,0.0339617,VALID,19.4017,VALID,90,VALID,0.654182,
2003-04-16, 00:53:00,VALID,919.228,VALID,0,VALID,99.8858,VALID,-0.0169808,VALID,19.3724,VALID,99,VALID,0.797286,
2003-04-16, 00:54:00,VALID,919.21,VALID,0,VALID,99.8795,VALID,0.0509425,VALID,19.3784,VALID,110,VALID,0.704464,
2003-04-16, 00:55:00,VALID,919.19,VALID,0,VALID,99.8845,VALID,0.169808,VALID,19.3776,VALID,118,VALID,0.814062,
2003-04-16, 00:56:00,VALID,919.174,VALID,0,VALID,99.8998,VALID,0.135847,VALID,19.3682,VALID,132,VALID,0.477564,
2003-04-16, 00:57:00,VALID,919.154,VALID,0.2,VALID,99.8998,VALID,0.101885,VALID,19.3911,VALID,126,VALID,0.715763,
2003-04-16, 00:58:00,VALID,919.134,VALID,0,VALID,99.8934,VALID,0.20377,VALID,19.3555,VALID,133,VALID,0.646875,
2003-04-16, 00:59:00,VALID,919.112,VALID,0,VALID,99.9087,VALID,0.152827,VALID,19.3677,VALID,133,VALID,0.608984,
2003-04-16, 01:00:00,VALID,919.098,VALID,0,VALID,99.9125,VALID,0.101885,VALID,19.397,VALID,136,VALID,0.82433,
2003-04-16, 01:01:00,VALID,919.063,VALID,0,VALID,99.91,VALID,0.169808,VALID,19.352,VALID,137,VALID,0.883272,
2003-04-16, 01:02:00,VALID,919.037,VALID,0,VALID,99.9189,VALID,0.0849042,VALID,19.3714,VALID,141,VALID,0.798314,
2003-04-16, 01:03:00,VALID,919.006,VALID,0,VALID,99.9138,VALID,0.0849042,VALID,19.3652,VALID,124,VALID,0.40558,
2003-04-16, 01:04:00,VALID,918.976,VALID,0,VALID,99.9151,VALID,0.271693,VALID,19.3749,VALID,110,VALID,0.847545,
2003-04-16, 01:05:00,VALID,918.951,VALID,0,VALID,99.9252,VALID,0.118866,VALID,19.349,VALID,114,VALID,0.748397,
2003-04-16, 01:06:00,VALID,918.915,VALID,0,VALID,99.9227,VALID,0.0339617,VALID,19.3202,VALID,101,VALID,0.774586,
2003-04-16, 01:07:00,VALID,918.901,VALID,0,VALID,99.9227,VALID,0.220751,VALID,19.3393,VALID,117,VALID,0.782812,
2003-04-16, 01:08:00,VALID,918.877,VALID,0,VALID,99.943,VALID,0.101885,VALID,19.3264,VALID,124,VALID,0.695508,
2003-04-16, 01:09:00,VALID,918.852,VALID,0.2,VALID,99.9443,VALID,0.0679233,VALID,19.359,VALID,121,VALID,0.775223,
2003-04-16, 01:10:00,VALID,918.825,VALID,0,VALID,99.9405,VALID,0.186789,VALID,19.3165,VALID,127,VALID,0.683134,
2003-04-16, 01:11:00,VALID,918.79,VALID,0,VALID,99.9443,VALID,0.118866,VALID,19.3257,VALID,126,VALID,0.359581,
2003-04-16, 01:12:00,VALID,918.766,VALID,0,VALID,99.9532,VALID,0.0509425,VALID,19.3557,VALID,131,VALID,0.83058,
2003-04-16, 01:13:00,VALID,918.717,VALID,0,VALID,99.9596,VALID,0.20377,VALID,19.3165,VALID,127,VALID,0.677232,
2003-04-16, 01:14:00,VALID,918.692,VALID,0,VALID,99.9545,VALID,0.0679233,VALID,19.3423,VALID,120,VALID,0.835737,
2003-04-16, 01:15:00,VALID,918.672,VALID,0,VALID,99.957,VALID,0.0169808,VALID,19.3229,VALID,128,VALID,0.646599,
2003-04-16, 01:16:00,VALID,918.643,VALID,0,VALID,99.9659,VALID,0.237732,VALID,19.3488,VALID,131,VALID,0.596875,
2003-04-16, 01:17:00,VALID,918.623,VALID,0,VALID,99.9748,VALID,0.118866,VALID,19.3331,VALID,132,VALID,0.670117,
2003-04-16, 01:18:00,VALID,918.607,VALID,0,VALID,99.9774,VALID,0.0169808,VALID,19.3236,VALID,128,VALID,0.697321,
2003-04-16, 01:19:00,VALID,918.578,VALID,0,VALID,99.9799,VALID,0.118866,VALID,19.3423,VALID,134,VALID,1.13028,
2003-04-16, 01:20:00,VALID,918.549,VALID,0,VALID,99.9822,VALID,0.0509425,VALID,19.3229,VALID,148,VALID,0.837582,
2003-04-16, 01:21:00,VALID,918.534,VALID,0.2,VALID,99.9837,VALID,0.0509425,VALID,19.349,VALID,134,VALID,1.3029,
2003-04-16, 01:22:00,VALID,918.499,VALID,0,VALID,99.9774,VALID,0.186789,VALID,19.3102,VALID,141,VALID,1.37567,
2003-04-16, 01:23:00,VALID,918.472,VALID,0,VALID,99.9797,VALID,0.152827,VALID,19.3294,VALID,144,VALID,1.19111,
2003-04-16, 01:24:00,VALID,918.456,VALID,0,VALID,99.9748,VALID,0.0849042,VALID,19.3356,VALID,141,VALID,1.56066,
2003-04-16, 01:25:00,VALID,918.426,VALID,0,VALID,99.9847,VALID,0.152827,VALID,19.3072,VALID,130,VALID,1.5221,
2003-04-16, 01:26:00,VALID,918.403,VALID,0,VALID,99.9761,VALID,0.0849042,VALID,19.3097,VALID,140,VALID,1.04336,
2003-04-16, 01:27:00,VALID,918.375,VALID,0,VALID,99.9809,VALID,0.0849042,VALID,19.3132,VALID,131,VALID,0.718973,
2003-04-16, 01:28:00,VALID,918.358,VALID,0,VALID,99.9863,VALID,0.20377,VALID,19.3132,VALID,130,VALID,0.789292,
2003-04-16, 01:29:00,VALID,918.338,VALID,0,VALID,99.9837,VALID,0.0849042,VALID,19.304,VALID,144,VALID,0.72574,
2003-04-16, 01:30:00,VALID,918.311,VALID,0,VALID,99.9911,VALID,0.0509425,VALID,19.301,VALID,137,VALID,0.622991,
2003-04-16, 01:31:00,VALID,918.294,VALID,0,VALID,99.9837,VALID,0.220751,VALID,19.3202,VALID,160,VALID,0.671429,
2003-04-16, 01:32:00,VALID,918.267,VALID,0,VALID,99.9896,VALID,0.101885,VALID,19.2844,VALID,142,VALID,1.09555,
2003-04-16, 01:33:00,VALID,918.241,VALID,0,VALID,99.9873,VALID,0.0509425,VALID,19.2839,VALID,151,VALID,0.888327,
2003-04-16, 01:34:00,VALID,918.226,VALID,0,VALID,99.9934,VALID,0.169808,VALID,19.2719,VALID,144,VALID,1.18348,
2003-04-16, 01:35:00,VALID,918.217,VALID,0,VALID,99.9873,VALID,0.0849042,VALID,19.2752,VALID,147,VALID,1.13945,
2003-04-16, 01:36:00,VALID,918.196,VALID,0.2,VALID,99.9921,VALID,0.0509425,VALID,19.2839,VALID,144,VALID,1.05647,
2003-04-16, 01:37:00,VALID,918.167,VALID,0,VALID,99.999,VALID,0.118866,VALID,19.2689,VALID,147,VALID,1.27068,
2003-04-16, 01:38:00,VALID,918.154,VALID,0,VALID,99.9934,VALID,0.0339617,VALID,19.2784,VALID,160,VALID,0.833059,
2003-04-16, 01:39:00,VALID,918.139,VALID,0,VALID,99.9947,VALID,0.0679233,VALID,19.2881,VALID,148,VALID,0.547098,
2003-04-16, 01:40:00,VALID,918.137,VALID,0,VALID,99.9967,VALID,0.20377,VALID,19.2968,VALID,162,VALID,0.614955,
2003-04-16, 01:41:00,VALID,918.111,VALID,0,VALID,99.999,VALID,0.0849042,VALID,19.2876,VALID,150,VALID,1.04968,
2003-04-16, 01:42:00,VALID,918.082,VALID,0,VALID,99.9941,VALID,0.0339617,VALID,19.2684,VALID,153,VALID,0.961627,
2003-04-16, 01:43:00,VALID,918.082,VALID,0,VALID,99.998,VALID,0.0849042,VALID,19.2881,VALID,147,VALID,1.11607,
2003-04-16, 01:44:00,VALID,918.072,VALID,0,VALID,99.9977,VALID,0.0679233,VALID,19.2684,VALID,136,VALID,0.771289,
2003-04-16, 01:45:00,VALID,918.039,VALID,0,VALID,99.9954,VALID,0.0509425,VALID,19.2948,VALID,146,VALID,0.75692,
2003-04-16, 01:46:00,VALID,918.029,VALID,0,VALID,99.9967,VALID,0.135847,VALID,19.2687,VALID,140,VALID,1.13166,
2003-04-16, 01:47:00,VALID,918.012,VALID,0,VALID,99.999,VALID,0.0849042,VALID,19.2849,VALID,146,VALID,1.00432,
2003-04-16, 01:48:00,VALID,917.997,VALID,0,VALID,99.9967,VALID,0.101885,VALID,19.2809,VALID,147,VALID,1.74821,
2003-04-16, 01:49:00,VALID,917.99,VALID,0,VALID,100,VALID,0.118866,VALID,19.2657,VALID,146,VALID,1.43929,
2003-04-16, 01:50:00,VALID,917.96,VALID,0,VALID,99.9957,VALID,0.0509425,VALID,19.2849,VALID,140,VALID,1.30168,
2003-04-16, 01:51:00,VALID,917.958,VALID,0,VALID,99.9977,VALID,0.0169808,VALID,19.2684,VALID,137,VALID,1.4205,
2003-04-16, 01:52:00,VALID,917.94,VALID,0,VALID,99.9934,VALID,0.169808,VALID,19.2814,VALID,147,VALID,1.85379,
2003-04-16, 01:53:00,VALID,917.924,VALID,0.2,VALID,99.9898,VALID,0.101885,VALID,19.2846,VALID,134,VALID,1.43125,
2003-04-16, 01:54:00,VALID,917.914,VALID,0,VALID,99.9921,VALID,0.0339617,VALID,19.2752,VALID,148,VALID,1.49978,
2003-04-16, 01:55:00,VALID,917.904,VALID,0,VALID,99.9908,VALID,0.101885,VALID,19.2878,VALID,146,VALID,2.55216,
2003-04-16, 01:56:00,VALID,917.891,VALID,0,VALID,99.9825,VALID,0.0849042,VALID,19.2913,VALID,150,VALID,1.93072,
2003-04-16, 01:57:00,VALID,917.894,VALID,0,VALID,99.9748,VALID,0.135847,VALID,19.2975,VALID,155,VALID,1.35335,
2003-04-16, 01:58:00,VALID,917.889,VALID,0,VALID,99.9835,VALID,0.186789,VALID,19.3043,VALID,145,VALID,1.52165,
2003-04-16, 01:59:00,VALID,917.892,VALID,0,VALID,99.9685,VALID,0.152827,VALID,19.3169,VALID,155,VALID,1.38121,
2003-04-16, 02:00:00,VALID,917.881,VALID,0,VALID,99.957,VALID,0.101885,VALID,19.3236,VALID,145,VALID,1.17785,
2003-04-16, 02:01:00,VALID,917.874,VALID,0,VALID,99.9596,VALID,0.186789,VALID,19.307,VALID,144,VALID,1.34487,
2003-04-16, 02:02:00,VALID,917.885,VALID,0,VALID,99.9545,VALID,0.169808,VALID,19.3003,VALID,145,VALID,1.55254,
2003-04-16, 02:03:00,VALID,917.888,VALID,0,VALID,99.9494,VALID,0.152827,VALID,19.3137,VALID,154,VALID,1.63371,
2003-04-16, 02:04:00,VALID,917.885,VALID,0,VALID,99.9507,VALID,0.237732,VALID,19.3232,VALID,142,VALID,1.20381,
2003-04-16, 02:05:00,VALID,917.876,VALID,0,VALID,99.9545,VALID,0.186789,VALID,19.3165,VALID,150,VALID,1.2097,
2003-04-16, 02:06:00,VALID,917.872,VALID,0,VALID,99.9494,VALID,0.152827,VALID,19.3167,VALID,156,VALID,1.23125,
2003-04-16, 02:07:00,VALID,917.862,VALID,0,VALID,99.9532,VALID,0.20377,VALID,19.3333,VALID,140,VALID,1.18013,
2003-04-16, 02:08:00,VALID,917.861,VALID,0,VALID,99.9456,VALID,0.169808,VALID,19.3167,VALID,145,VALID,1.26603,
2003-04-16, 02:09:00,VALID,917.865,VALID,0,VALID,99.9519,VALID,0.152827,VALID,19.3169,VALID,155,VALID,0.996783,
2003-04-16, 02:10:00,VALID,917.857,VALID,0,VALID,99.9468,VALID,0.237732,VALID,19.3172,VALID,147,VALID,1.52723,
2003-04-16, 02:11:00,VALID,917.861,VALID,0,VALID,99.9367,VALID,0.186789,VALID,19.3169,VALID,147,VALID,1.42441,
2003-04-16, 02:12:00,VALID,917.871,VALID,0,VALID,99.9303,VALID,0.152827,VALID,19.3299,VALID,146,VALID,1.5808,
2003-04-16, 02:13:00,VALID,917.885,VALID,0,VALID,99.9341,VALID,0.220751,VALID,19.304,VALID,138,VALID,1.72059,
2003-04-16, 02:14:00,VALID,917.891,VALID,0,VALID,99.9265,VALID,0.152827,VALID,19.3236,VALID,138,VALID,1.6396,
2003-04-16, 02:15:00,VALID,917.901,VALID,0,VALID,99.9379,VALID,0.118866,VALID,19.3135,VALID,152,VALID,1.05379,
2003-04-16, 02:16:00,VALID,917.903,VALID,0.2,VALID,99.924,VALID,0.237732,VALID,19.3266,VALID,146,VALID,1.69375,
2003-04-16, 02:17:00,VALID,917.911,VALID,0,VALID,99.9138,VALID,0.118866,VALID,19.3107,VALID,158,VALID,1.56851,
2003-04-16, 02:18:00,VALID,917.919,VALID,0,VALID,99.9163,VALID,0.0849042,VALID,19.2876,VALID,153,VALID,1.31411,
2003-04-16, 02:19:00,VALID,917.942,VALID,0,VALID,99.9125,VALID,0.20377,VALID,19.3165,VALID,153,VALID,0.919643,
2003-04-16, 02:20:00,VALID,917.936,VALID,0,VALID,99.9303,VALID,0.118866,VALID,19.3075,VALID,146,VALID,1.21699,
2003-04-16, 02:21:00,VALID,917.943,VALID,0,VALID,99.9189,VALID,0.118866,VALID,19.3236,VALID,133,VALID,1.33371,
2003-04-16, 02:22:00,VALID,917.957,VALID,0,VALID,99.9278,VALID,0.220751,VALID,19.3107,VALID,145,VALID,0.869715,
2003-04-16, 02:23:00,VALID,917.956,VALID,0,VALID,99.929,VALID,0.152827,VALID,19.3333,VALID,148,VALID,1.75391,
2003-04-16, 02:24:00,VALID,917.96,VALID,0,VALID,99.9278,VALID,0.118866,VALID,19.343,VALID,139,VALID,1.9971,
2003-04-16, 02:25:00,VALID,917.97,VALID,0,VALID,99.9227,VALID,0.169808,VALID,19.3333,VALID,143,VALID,1.66585,
2003-04-16, 02:26:00,VALID,917.975,VALID,0,VALID,99.9214,VALID,0.152827,VALID,19.3495,VALID,146,VALID,1.91146,
2003-04-16, 02:27:00,VALID,917.977,VALID,0,VALID,99.929,VALID,0.101885,VALID,19.3393,VALID,145,VALID,1.12431,
2003-04-16, 02:28:00,VALID,917.988,VALID,0,VALID,99.9125,VALID,0.220751,VALID,19.3523,VALID,147,VALID,1.86741,
2003-04-16, 02:29:00,VALID,917.994,VALID,0,VALID,99.9176,VALID,0.186789,VALID,19.3525,VALID,150,VALID,1.65215,
2003-04-16, 02:30:00,VALID,918.021,VALID,0,VALID,99.9163,VALID,0.118866,VALID,19.3458,VALID,147,VALID,1.72902,
2003-04-16, 02:31:00,VALID,918.015,VALID,0,VALID,99.9138,VALID,0.220751,VALID,19.3751,VALID,132,VALID,1.03998,
2003-04-16, 02:32:00,VALID,918.035,VALID,0,VALID,99.91,VALID,0.169808,VALID,19.3756,VALID,114,VALID,0.820518,
2003-04-16, 02:33:00,VALID,918.034,VALID,0,VALID,99.9112,VALID,0.169808,VALID,19.362,VALID,143,VALID,1.20915,
2003-04-16, 02:34:00,VALID,918.036,VALID,0,VALID,99.9163,VALID,0.254712,VALID,19.3595,VALID,149,VALID,1.29799,
2003-04-16, 02:35:00,VALID,918.034,VALID,0,VALID,99.9036,VALID,0.20377,VALID,19.3786,VALID,161,VALID,1.32372,
2003-04-16, 02:36:00,VALID,918.034,VALID,0,VALID,99.91,VALID,0.152827,VALID,19.3816,VALID,164,VALID,1.34076,
2003-04-16, 02:37:00,VALID,918.044,VALID,0,VALID,99.9049,VALID,0.271693,VALID,19.3689,VALID,160,VALID,1.94987,
2003-04-16, 02:38:00,VALID,918.05,VALID,0,VALID,99.9062,VALID,0.220751,VALID,19.3784,VALID,153,VALID,1.77129,
2003-04-16, 02:39:00,VALID,918.059,VALID,0,VALID,99.8985,VALID,0.237732,VALID,19.3717,VALID,150,VALID,0.926786,
2003-04-16, 02:40:00,VALID,918.058,VALID,0.2,VALID,99.8922,VALID,0.305655,VALID,19.3779,VALID,150,VALID,1.55492,
2003-04-16, 02:41:00,VALID,918.073,VALID,0,VALID,99.8845,VALID,0.220751,VALID,19.3714,VALID,148,VALID,2.09519,
2003-04-16, 02:42:00,VALID,918.059,VALID,0,VALID,99.8744,VALID,0.220751,VALID,19.3814,VALID,157,VALID,1.79554,
2003-04-16, 02:43:00,VALID,918.068,VALID,0,VALID,99.8629,VALID,0.271693,VALID,19.4201,VALID,166,VALID,1.08281,
2003-04-16, 02:44:00,VALID,918.078,VALID,0,VALID,99.8413,VALID,0.254712,VALID,19.4236,VALID,164,VALID,1.30429,
2003-04-16, 02:45:00,VALID,918.088,VALID,0,VALID,99.84,VALID,0.220751,VALID,19.4269,VALID,166,VALID,0.89591,
2003-04-16, 02:46:00,VALID,918.1,VALID,0,VALID,99.8337,VALID,0.288674,VALID,19.4338,VALID,153,VALID,1.35089,
2003-04-16, 02:47:00,VALID,918.113,VALID,0,VALID,99.8235,VALID,0.254712,VALID,19.4229,VALID,160,VALID,1.02832,
2003-04-16, 02:48:00,VALID,918.124,VALID,0,VALID,99.821,VALID,0.271693,VALID,19.4423,VALID,158,VALID,0.688839,
2003-04-16, 02:49:00,VALID,918.138,VALID,0,VALID,99.8197,VALID,0.305655,VALID,19.4363,VALID,155,VALID,0.952895,
2003-04-16, 02:50:00,VALID,918.164,VALID,0,VALID,99.8222,VALID,0.305655,VALID,19.446,VALID,135,VALID,0.707442,
2003-04-16, 02:51:00,VALID,918.184,VALID,0,VALID,99.8121,VALID,0.271693,VALID,19.446,VALID,154,VALID,0.741964,
2003-04-16, 02:52:00,VALID,918.199,VALID,0,VALID,99.8082,VALID,0.356597,VALID,19.4463,VALID,120,VALID,0.89933,
2003-04-16, 02:53:00,VALID,918.22,VALID,0,VALID,99.7968,VALID,0.305655,VALID,19.4495,VALID,100,VALID,0.529848,
2003-04-16, 02:54:00,VALID,918.23,VALID,0,VALID,99.8095,VALID,0.271693,VALID,19.4328,VALID,122,VALID,0.268153,
2003-04-16, 02:55:00,VALID,918.247,VALID,0,VALID,99.8095,VALID,0.339617,VALID,19.4356,VALID,118,VALID,0.658036,
2003-04-16, 02:56:00,VALID,918.255,VALID,0,VALID,99.8171,VALID,0.339617,VALID,19.4425,VALID,148,VALID,0.916406,
2003-04-16, 02:57:00,VALID,918.268,VALID,0,VALID,99.8057,VALID,0.356597,VALID,19.4624,VALID,145,VALID,0.647321,
2003-04-16, 02:58:00,VALID,918.287,VALID,0,VALID,99.8057,VALID,0.373578,VALID,19.4261,VALID,127,VALID,0.584099,
2003-04-16, 02:59:00,VALID,918.275,VALID,0,VALID,99.8006,VALID,0.339617,VALID,19.446,VALID,96,VALID,0.494655,
2003-04-16, 03:00:00,VALID,918.291,VALID,0,VALID,99.7917,VALID,0.305655,VALID,19.4455,VALID,103,VALID,0.722545,
2003-04-16, 03:01:00,VALID,918.29,VALID,0,VALID,99.7981,VALID,0.339617,VALID,19.4328,VALID,71,VALID,0.775893,
2003-04-16, 03:02:00,VALID,918.279,VALID,0,VALID,99.8095,VALID,0.356597,VALID,19.4555,VALID,77,VALID,0.841747,
2003-04-16, 03:03:00,VALID,918.292,VALID,0,VALID,99.8019,VALID,0.288674,VALID,19.4425,VALID,84,VALID,0.738741,
2003-04-16, 03:04:00,VALID,918.289,VALID,0,VALID,99.7879,VALID,0.40754,VALID,19.4555,VALID,80,VALID,0.611161,
2003-04-16, 03:05:00,VALID,918.31,VALID,0,VALID,99.7955,VALID,0.322636,VALID,19.45,VALID,83,VALID,0.629687,
2003-04-16, 03:06:00,VALID,918.312,VALID,0,VALID,99.8171,VALID,0.237732,VALID,19.4463,VALID,58,VALID,0.671205,
2003-04-16, 03:07:00,VALID,918.315,VALID,0,VALID,99.7955,VALID,0.305655,VALID,19.4659,VALID,63,VALID,0.906939,
2003-04-16, 03:08:00,VALID,918.331,VALID,0,VALID,99.8082,VALID,0.271693,VALID,19.4433,VALID,58,VALID,1.03002,
2003-04-16, 03:09:00,VALID,918.337,VALID,0,VALID,99.793,VALID,0.220751,VALID,19.4398,VALID,60,VALID,1.31138,
2003-04-16, 03:10:00,VALID,918.332,VALID,0,VALID,99.7854,VALID,0.322636,VALID,19.4139,VALID,53,VALID,1.37857,
2003-04-16, 03:11:00,VALID,918.354,VALID,0,VALID,99.7803,VALID,0.305655,VALID,19.4395,VALID,57,VALID,1.19251,
2003-04-16, 03:12:00,VALID,918.354,VALID,0,VALID,99.7752,VALID,0.186789,VALID,19.449,VALID,73,VALID,1.16475,
2003-04-16, 03:13:00,VALID,918.354,VALID,0,VALID,99.7599,VALID,0.322636,VALID,19.4104,VALID,65,VALID,1.02098,
2003-04-16, 03:14:00,VALID,918.349,VALID,0,VALID,99.765,VALID,0.271693,VALID,19.4395,VALID,47,VALID,0.819727,
2003-04-16, 03:15:00,VALID,918.356,VALID,0,VALID,99.7612,VALID,0.220751,VALID,19.4303,VALID,61,VALID,0.661161,
2003-04-16, 03:16:00,VALID,918.366,VALID,0.2,VALID,99.7587,VALID,0.356597,VALID,19.4234,VALID,69,VALID,1.01218,
2003-04-16, 03:17:00,VALID,918.364,VALID,0,VALID,99.7536,VALID,0.271693,VALID,19.4008,VALID,72,VALID,0.844984,
2003-04-16, 03:18:00,VALID,918.363,VALID,0,VALID,99.7574,VALID,0.20377,VALID,19.4015,VALID,68,VALID,0.875893,
2003-04-16, 03:19:00,VALID,918.365,VALID,0,VALID,99.7497,VALID,0.339617,VALID,19.4107,VALID,71,VALID,0.633036,
2003-04-16, 03:20:00,VALID,918.363,VALID,0,VALID,99.7574,VALID,0.220751,VALID,19.3784,VALID,82,VALID,0.807492,
2003-04-16, 03:21:00,VALID,918.369,VALID,0,VALID,99.7459,VALID,0.186789,VALID,19.3818,VALID,91,VALID,0.945542,
2003-04-16, 03:22:00,VALID,918.371,VALID,0,VALID,99.7625,VALID,0.305655,VALID,19.3527,VALID,93,VALID,0.772991,
2003-04-16, 03:23:00,VALID,918.381,VALID,0,VALID,99.7675,VALID,0.237732,VALID,19.3652,VALID,99,VALID,0.711133,
2003-04-16, 03:24:00,VALID,918.361,VALID,0,VALID,99.7714,VALID,0.20377,VALID,19.3751,VALID,89,VALID,0.585491,
2003-04-16, 03:25:00,VALID,918.366,VALID,0,VALID,99.7892,VALID,0.305655,VALID,19.3525,VALID,81,VALID,0.53102,
2003-04-16, 03:26:00,VALID,918.369,VALID,0,VALID,99.7892,VALID,0.237732,VALID,19.3724,VALID,119,VALID,0.506168,
2003-04-16, 03:27:00,VALID,918.363,VALID,0,VALID,99.7955,VALID,0.220751,VALID,19.359,VALID,114,VALID,0.375893,
2003-04-16, 03:28:00,VALID,918.369,VALID,0,VALID,99.7968,VALID,0.339617,VALID,19.3555,VALID,92,VALID,0.564062,
2003-04-16, 03:29:00,VALID,918.373,VALID,0,VALID,99.8032,VALID,0.271693,VALID,19.3493,VALID,102,VALID,0.550681,
2003-04-16, 03:30:00,VALID,918.362,VALID,0,VALID,99.8044,VALID,0.20377,VALID,19.3527,VALID,109,VALID,0.686351,
2003-04-16, 03:31:00,VALID,918.366,VALID,0.2,VALID,99.8146,VALID,0.322636,VALID,19.3592,VALID,108,VALID,0.636384,
2003-04-16, 03:32:00,VALID,918.358,VALID,0,VALID,99.826,VALID,0.237732,VALID,19.35,VALID,101,VALID,0.60293,
2003-04-16, 03:33:00,VALID,918.36,VALID,0,VALID,99.8286,VALID,0.254712,VALID,19.3599,VALID,97,VALID,0.66183,